Zurück zum Katalog

TITAN 3C TRANSTAGE R/B

AktivHEO
NORAD 2770·ROCKET BODY·🇺🇸 United States

Gestartet Apr 28, 1967 von Cape Canaveral Space Force Station

Loading…

Nächste Überflüge (nächste 24 Stunden)

TLE

AktuellSource: Space-Track

Epoche: Sep 14, 2026, 15:05 UTC

1 02770U 67040F   26257.62847559 -.00000742  00000-0  00000-0 0  9995
2 02770  14.4375 204.7326 8024664   0.6662 359.2306  0.50947096 23751

Verfolge TITAN 3C TRANSTAGE R/B in Echtzeit mit AllMySat

Download on the App Store